Location: Catstown
(52.4386°N, 7.2633°W)
Time: 05:29:23
(UTC+00:00)

Cosmos 2279 Rocket - Pass Details

Date: 18 September 2020
Orbit: 964 x 979 km, 82.9° (Epoch: 20 October)

Event Time Altitude Azimuth Distance (km) Brightness Sun altitude
Exits shadow 22:05:24 56° 220° (SW) 1,160 4.2 -28.9°
Maximum altitude 22:06:44 73° 282° (WNW) 1,027 4.1 -29.0°
Drops below altitude 10° 22:13:02 10° 8° (N) 2,744 6.8 -29.7°
Sets 22:15:35 0° 10° (N) 3,696 7.6 -29.9°
